Date,TemperatureHighF,TemperatureAvgF,TemperatureLowF,DewpointHighF,DewpointAvgF,DewpointLowF,HumidityHigh,HumidityAvg,HumidityLow,PressureMaxIn,PressureMinIn,WindSpeedMaxMPH,WindSpeedAvgMPH,GustSpeedMaxMPH,PrecipitationSumIn
2013-1-1,25.0,20.3,13.0,21.0,14.2,6.0,85,77,68,30.22,30.06,14,4,24,0.01
2013-1-2,23.0,14.8,5.0,9.0,6.0,0.0,83,68,50,30.27,30.18,9,2,20,0.00
2013-1-3,32.0,23.9,14.0,26.0,17.0,7.0,79,75,69,30.32,30.17,10,3,31,0.00
2013-1-4,33.0,23.2,13.0,24.0,16.2,7.0,82,74,66,30.35,30.27,13,3,21,0.01
2013-1-5,35.0,28.7,19.0,30.0,23.4,16.0,87,81,69,30.29,30.04,11,3,20,0.01
2013-1-6,37.0,29.1,19.0,31.0,22.9,15.0,86,77,72,30.37,29.96,21,6,29,0.01
2013-1-7,35.0,25.9,16.0,26.0,20.3,13.0,88,79,66,30.40,30.15,17,5,30,0.01
2013-1-8,42.0,34.3,26.0,32.0,26.2,22.0,84,72,58,30.21,30.10,11,5,20,0.00
2013-1-9,50.0,41.5,29.0,36.0,31.6,22.0,80,68,47,30.49,30.09,13,4,21,0.00
2013-1-10,47.0,36.9,28.0,45.0,31.1,21.0,95,80,59,30.48,29.85,10,3,18,0.38
2013-1-11,57.0,54.3,47.0,56.0,50.0,46.0,96,85,75,29.85,29.69,16,8,31,0.29
2013-1-12,60.0,49.2,33.0,51.0,44.2,31.0,92,83,70,29.90,29.77,21,7,35,0.97
2013-1-13,33.0,26.8,16.0,31.0,23.5,9.0,92,87,75,30.29,29.76,22,8,31,1.03
2013-1-14,23.0,18.0,14.0,17.0,12.0,8.0,85,77,73,30.48,30.29,9,3,18,0.00
2013-1-15,29.0,22.8,15.0,21.0,16.6,11.0,85,77,65,30.42,30.10,13,3,20,0.00
2013-1-16,37.0,29.5,20.0,26.0,20.9,17.0,89,72,50,30.10,29.93,9,2,23,0.03
2013-1-17,34.0,30.2,20.0,27.0,22.2,15.0,86,72,56,30.42,30.05,22,6,29,0.02
2013-1-18,39.0,30.6,20.0,28.0,21.6,15.0,85,70,54,30.46,30.06,20,7,33,0.03
2013-1-19,52.0,42.8,36.0,36.0,31.8,28.0,74,66,52,30.07,29.81,17,7,30,0.01
2013-1-20,41.0,23.7,18.0,32.0,11.3,7.0,73,59,49,30.30,29.93,22,8,46,0.01
2013-1-21,19.0,13.2,6.0,11.0,1.3,-7.0,75,59,41,30.34,30.19,22,10,35,0.00
2013-1-22,16.0,9.9,3.0,-2.0,-3.8,-6.0,69,54,38,30.43,30.33,13,7,23,0.00
2013-1-23,26.0,18.5,10.0,13.0,5.4,-2.0,67,56,47,30.37,30.10,17,2,29,0.00
2013-1-24,23.0,17.4,8.0,9.0,3.3,-2.0,69,54,40,30.61,30.27,17,7,29,0.00
2013-1-25,31.0,24.4,19.0,21.0,14.1,2.0,82,66,42,30.35,30.01,12,3,18,0.03
2013-1-26,30.0,23.0,15.0,17.0,12.4,8.0,75,64,49,30.39,30.14,9,3,21,0.01
2013-1-27,42.0,30.2,22.0,39.0,23.8,15.0,94,77,64,30.38,29.96,20,6,26,0.10
2013-1-28,56.0,50.0,42.0,55.0,48.4,40.0,97,94,91,29.96,29.84,14,7,23,0.07
2013-1-29,62.0,58.1,53.0,58.0,55.6,51.0,97,91,82,29.84,29.30,23,12,40,1.14
2013-1-30,53.0,41.7,23.0,52.0,38.6,15.0,96,88,71,29.68,29.23,25,10,39,1.42
2013-1-31,24.0,18.2,7.0,19.0,9.2,-2.0,86,67,60,30.22,29.68,23,14,36,0.01